Regional Weather Roundup
Issued by NWS Upton, NY

Current Version | Previous Version | Text Only | Print | Product List | Glossary On
Versions: 1 2 3 4 5 6 7 8 9 10 11 12 13 14 15 16 17 18 19 20 21 22 23 24 25 26 27 28 29 30 31 32 33 34 35 36 37 38 39 40 41 42 43 44 45 46 47 48 49 50
000
ASUS41 KOKX 192208
RWROKX

REGIONAL WEATHER ROUNDUP
NATIONAL WEATHER SERVICE NEW YORK NY
500 PM EST THU JAN 19 2017

NOTE: "FAIR" INDICATES FEW OR NO CLOUDS BELOW 12,000 FEET WITH NO
SIGNIFICANT WEATHER AND/OR OBSTRUCTIONS TO VISIBILITY.

NYZ071-072-176-178-NJZ106-104-192300-
NEW YORK CITY METRO AREA

CITY           SKY/WX    TMP DP  RH WIND       PRES   REMARKS
Central Park   CLOUDY    44  33  65 NW8       30.02R
Wall St Helipt CLOUDY    45  34  65 W5G49     30.02R
Bronx Bot Gard NOT AVBL
LaGuardia APRT CLOUDY    45  34  65 NW13      30.00R
Kennedy INTL   CLOUDY    46  31  55 NW14      30.01R
Breezy Point     N/A     43 N/A N/A NW8         N/A
Newark/Liberty CLOUDY    45  34  65 W10G18    30.01R
Teterboro      CLOUDY    45  34  65 W9        30.00R
$$

NYZ177-179-078>081-192300-
LONG ISLAND NEW YORK

CITY           SKY/WX    TMP DP  RH WIND       PRES   REMARKS
Jones Beach      N/A     43 N/A N/A NW10        N/A
Matinecock PT  NOT AVBL
Farmingdale    MOCLDY    45  34  65 NW9       29.99R
MacArthur/ISP  CLOUDY    46  36  68 NW7       29.98R
Shirley        CLOUDY    45  35  68 NW6       29.99R
Westhampton    CLEAR     41  33  73 W5        29.99R
Southampton    NOT AVBL
Bridgehampton  NOT AVBL
East Hampton     N/A     42  34  73 CALM      29.96S
Montauk          N/A     43  37  79 NW3       29.97R
$$

NYZ052-065-067-192300-
HUDSON VALLEY

CITY           SKY/WX    TMP DP  RH WIND       PRES   REMARKS
White Plains   MOCLDY    43  33  68 W5        29.97S
Newburgh       NOT AVBL
Montgomery     CLOUDY    44  33  65 W8        29.96R
Poughkeepsie   CLOUDY    42  34  73 CALM      29.98R
Albany         LGT RAIN  39  32  76 W13       30.00R WCI  31
$$

NJZ001-105-106-008-010-013-015-019>022-104-192300-
NEW JERSEY

CITY           SKY/WX    TMP DP  RH WIND       PRES   REMARKS
Newark/Liberty CLOUDY    45  34  65 W10G18    30.01R
Teterboro      CLOUDY    45  34  65 W9        30.00R
Caldwell       PTCLDY    43  32  65 NW6       30.01R
Somerville     CLOUDY    44  33  65 NW7       30.00R
Linden         CLOUDY    44  33  65 N6        30.01R
Sussex         NOT AVBL
Andover          N/A     40  31  70 VRB7      30.00R
Trenton        CLOUDY    44  34  67 NW5       30.01R
Millville      CLOUDY    45  37  73 NW5       30.02R
Atlantic City  CLOUDY    48  35  60 N7        30.00R
Wrightstown    CLOUDY    43  35  72 NW8       29.99R
Toms River     CLOUDY    45  36  70 W8        30.02R
Belmar         CLOUDY    44  35  70 W10       30.01R
$$

PAZ047>061-062-071-192300-
EASTERN PENNSYLVANIA

CITY           SKY/WX    TMP DP  RH WIND       PRES   REMARKS
Philadelphia   CLOUDY    46  34  62 NE5       30.03S
Allentown      CLOUDY    44  32  62 NW3       30.01S
Scranton       CLOUDY    40  33  76 CALM      29.99S
$$

CTZ002-004>006-009-010-012-RIZ004-006-007-MAZ004-011-015-192300-
SOUTHERN NEW ENGLAND
 IN CT

CITY           SKY/WX    TMP DP  RH WIND       PRES   REMARKS
Bradley INTL   CLOUDY    42  32  67 W9        29.97S
Hartford       CLOUDY    43  32  65 NW8       29.98R
Danbury        CLOUDY    43  33  68 N5        29.98R
Wtrbury/Oxford MOCLDY    43  30  61 N7        29.98R
Bridgeport     PTCLDY    46  33  60 NW5       29.98R
Meriden        CLOUDY    46  32  58 N7        29.97R
New Haven      MOCLDY    45  32  60 N7        29.97R
Chester        CLOUDY    45  32  61 N7        29.96R
Groton         MOCLDY    45  33  63 N7        29.96R
Wilimantic     CLOUDY    44  33  65 W6        29.97R

 IN RI

CITY           SKY/WX    TMP DP  RH WIND       PRES   REMARKS
Providence     MOCLDY    44  33  65 N5        29.96R
Block Island   NOT AVBL
Westerly       CLOUDY    46  30  53 NW8       29.97R
 IN MA

CITY           SKY/WX    TMP DP  RH WIND       PRES   REMARKS
Boston         MOCLDY    43  33  68 N6        29.95F
Worcester      CLOUDY    38  30  73 VRB5      29.93S WCI  34
Westfield      CLOUDY    41  33  73 W8        29.96S
Provincetown   MOCLDY    42  34  73 NW14      29.96R
Nantucket      CLEAR     38  33  82 N7        29.94S WCI  33
$$

ANZ330-335-338-340-345-350-353-355-192300-
COASTAL MARINE OBSERVATIONS


STATION/POSITION TIME  SKY/WX   TEMP    WIND        PRES    VSBY  WAVE
                                AIR SEA DIR/SP/G                  HT/PER
                 (UTC)          (F)     (DEG/KT/KT) (MB)    (MI)  (FT/S)
NY HARB ENTRANCE 2050            45 45  320/ 12/ 14 1015.2          4/11
20 S FIRE ISLAND 2150            45 45  310/ 16/ 19 1014.9          5/11
GREAT SOUTH BAY  NOT AVBL
23 SSW MONTAUK P 2150            45 48  300/ 10/ 12 1015.2          5/10
15 E BARNEGAT LI 2130               48                N/A           6/11
HUDSON CANYON    2050            46 51              1015.1          8/11
KINGS POINT      2124            43 39              1015.3
EXECUTION ROCKS  2145            44     280/  6/ 10   N/A
CENTRAL LI SOUND 2115            44     290/  8/ 10   N/A           1
EASTERN LI SOUND NOT AVBL
ROBBINS REEF     2124            44     310/ 10/ 11 1016.0
$$


>>>>>>>>>>>>>>>>>>>>>>>>>>>> KEY <<<<<<<<<<<<<<<<<<<<<<<<<<<
>                                                          <
>     SKY/WX - Sky Condition/Present Weather               <
>     TMP    - Temperature in Fahrenheit                   <
>     DP     - Dew Point in Fahrenheit                     <
>     RH     - Relative Humidity in Percent                <
>     WIND   - Direction (from) and Speed in MPH           <
>     PRES   - Mean Sea Level Pressure (inches of Hg)      <
>     WCI    - Wind Chill Index                            <
>     VSB    - VISIBILITY IN MILES                         <
>     HX     - HEAT INDEX                                  <
>     TC     - TEMPERATURE IN CELSIUS                      <
>     VRB    - VARIABLE WIND DIRECTION                     <
>                                                          <
>>>>>>>>>>>>>>>>>>>>>>>>>>>> KEY <<<<<<<<<<<<<<<<<<<<<<<<<<<



USA.gov is the U.S. government's official web portal to all federal, state and local government web resources and services.